Location: Béaulencourt
(50.0796°N, 2.8795°E)
Time: 18:11:35
(UTC+00:00)

Cosmos 407 Rocket - Visible Passes

Search period start: 11 April 2026 00:00
Search period end: 21 April 2026 00:00
Orbit: 739 x 781 km, 74.0° (Epoch: 11 April)

Date Brightness Start Highest point End Pass type
(mag) Time Alt. Az. Time Alt. Az. Time Alt. Az.
11 Apr 4.7 00:10:03 10° NNW 00:13:09 35° NW 00:13:09 35° NW visible
11 Apr 5.5 21:49:35 10° N 21:52:58 17° NE 21:54:16 16° ENE visible
11 Apr 4.2 23:30:33 10° NNW 23:34:21 49° NNW 23:34:21 49° NNW visible
12 Apr 5.8 01:13:51 10° WNW 01:14:26 12° WNW 01:14:26 12° WNW visible
12 Apr 5.8 21:11:03 10° NNE 21:12:58 12° NE 21:14:53 10° ENE visible
12 Apr 4.2 22:51:11 10° NNW 22:55:34 46° NE 22:55:34 46° NE visible
13 Apr 5.4 00:33:34 10° NW 00:35:39 20° WNW 00:35:39 20° WNW visible
13 Apr 4.6 22:11:56 10° N 22:16:33 32° NE 22:16:47 32° ENE visible
13 Apr 4.7 23:53:43 10° NW 23:56:53 33° WNW 23:56:53 33° WNW visible
14 Apr 5.1 21:32:50 10° N 21:36:47 21° NE 21:38:02 20° ENE visible
14 Apr 4.0 23:14:07 10° NNW 23:18:08 54° NW 23:18:08 54° NW visible
15 Apr 5.6 20:53:59 10° N 20:56:51 15° NE 20:59:18 11° ENE visible
15 Apr 3.7 22:34:40 10° NNW 22:39:24 63° NNE 22:39:24 63° NNE visible
16 Apr 5.5 00:17:32 10° NW 00:19:29 17° WNW 00:19:29 17° WNW visible
16 Apr 5.9 20:16:07 10° NNE 20:16:49 10° NE 20:17:31 10° NE visible
16 Apr 4.1 21:55:21 10° NNW 22:00:14 41° ENE 22:00:40 40° ENE visible
16 Apr 4.9 23:37:28 10° NW 23:40:46 29° WNW 23:40:46 29° WNW visible
17 Apr 4.8 21:16:09 10° N 21:20:32 27° NE 21:21:58 24° ENE visible
17 Apr 4.0 22:57:44 10° NNW 23:02:04 51° WNW 23:02:04 51° WNW visible
18 Apr 5.3 20:37:07 10° N 20:40:42 18° NE 20:43:17 13° E visible
18 Apr 3.3 22:18:12 10° NNW 22:23:22 89° ENE 22:23:22 89° ENE visible
19 Apr 5.7 00:01:49 10° WNW 00:03:29 14° W 00:03:29 14° W visible
19 Apr 5.6 19:58:26 10° NNE 20:00:44 13° NE 20:03:00 10° ENE visible
19 Apr 3.7 21:38:48 10° NNW 21:43:52 55° ENE 21:44:43 49° E visible
19 Apr 5.1 23:21:20 10° NW 23:24:49 24° W 23:24:49 24° W visible
20 Apr 4.4 20:59:31 10° N 21:04:14 35° NE 21:06:04 27° E visible
20 Apr 4.2 22:41:25 10° NW 22:46:10 40° WSW 22:46:10 40° WSW visible
